{"data":{"norad_id":44748,"epoch":"2026-09-19T21:29:28.851648Z","epoch_age_seconds":66530,"freshness":"FRESH","line1":"1 44748U 19074AM  26262.89547282  .00048562  00000+0  34122-3 0  9990","line2":"2 44748  53.0461 323.9980 0001981  10.4151 349.6908 15.73684468379025","mean_motion":15.73684468,"eccentricity":0.0001981,"inclination_deg":53.0461,"raan_deg":323.998,"arg_perigee_deg":10.4151,"mean_anomaly_deg":349.6908,"bstar":0.00034122,"rev_number":37902,"period_min":91.505001751088,"perigee_km":347.0447656427,"apogee_km":349.70981060365,"semimajor_km":6726.5142881232,"source":"CELESTRAK","updated_at":"2026-09-20T09:00:38.219510Z"}}